This demonstration page uses our WeatherBlox Daily Observations layout. Learn more.

Left ArrowRight Arrow

Hourly Observations for June 28, 2017

Temp ( °F °C ) Dew Point ( °F °C ) Humidity (%) Winds ( mph kmh ) Pressure ( in mb ) Visibility ( mi km ) Precip ( " mm )
12:15 am 00:15 Clear with Nearby Thunderstorms 68 20.2 64 17.6 85 85 E 9 15 29.65 1004 10 16.0934 0 0
12:35 am 00:35 Clear with Nearby Thunderstorms 69 20.8 64 17.5 82 82 E 10 17 29.62 1003 10 16.0934 0 0
12:55 am 00:55 Partly Cloudy 68 20.2 63 17 82 82 N 17 28 29.68 1005 10 16.0934 0 0
1:15 am 01:15 Mostly Cloudy with Light Rain 66 18.7 62 16.5 87 87 N 13 20 29.71 1006 10 16.0934 0 0
1:35 am 01:35 Partly Cloudy 65 18.6 62 16.6 88 88 N 6 9 29.71 1006 10 16.0934 0 0
1:55 am 01:55 Clear 65 18.6 62 16.7 89 89 NE 6 9 29.68 1005 10 16.0934 0 0
2:15 am 02:15 Clear 66 19 62 16.7 87 87 Calm 29.71 1006 10 16.0934 0 0
2:35 am 02:35 Partly Cloudy 66 18.9 62 16.8 88 88 Calm 29.71 1006 10 16.0934 0 0
2:55 am 02:55 Partly Cloudy with Light Thunderstorms 66 18.7 63 17.2 91 91 SE 10 17 29.65 1004 10 16.0934 0 0
3:15 am 03:15 Clear 66 18.9 63 17.1 89 89 Calm 29.68 1005 10 16.0934 0 0
3:35 am 03:35 Clear 65 18.3 63 17 92 92 Calm 29.68 1005 10 16.0934 0 0
3:55 am 03:55 Clear 66 18.7 63 17.1 90 90 S 3 6 29.65 1004 10 16.0934 0 0
4:15 am 04:15 Clear 66 18.8 62 16.7 88 88 Calm 29.65 1004 10 16.0934 0 0
4:35 am 04:35 Clear 66 19.1 62 16.4 84 84 S 8 13 29.65 1004 10 16.0934 0 0
4:55 am 04:55 Clear 67 19.7 60 15.5 77 77 WSW 3 6 29.65 1004 10 16.0934 0 0
5:15 am 05:15 Clear 66 18.8 60 15.6 82 82 SSW 7 11 29.65 1004 10 16.0934 0 0
5:35 am 05:35 Clear 66 19.1 59 15 77 77 SW 5 7 29.65 1004 10 16.0934 0 0
5:55 am 05:55 Clear 66 18.8 58 14.5 76 76 W 7 11 29.65 1004 10 16.0934 0 0
6:15 am 06:15 Sunny 64 18 59 15.1 83 83 NW 6 9 29.65 1004 10 16.0934 0 0
6:35 am 06:35 Sunny 63 17.2 59 15.1 88 88 W 5 7 29.65 1004 10 16.0934 0 0
6:55 am 06:55 Sunny 65 18.6 59 15.2 81 81 Calm 29.68 1005 10 16.0934 0 0
7:15 am 07:15 Sunny 66 18.8 60 15.5 81 81 Calm 29.68 1005 10 16.0934 0 0
7:35 am 07:35 Sunny 67 19.7 61 16 79 79 W 7 11 29.68 1005 10 16.0934 0 0
7:55 am 07:55 Sunny 69 20.8 61 16.2 75 75 W 8 13 29.71 1006 10 16.0934 0 0
8:15 am 08:15 Sunny 71 21.5 62 16.5 73 73 W 8 13 29.68 1005 10 16.0934 0 0
8:35 am 08:35 Sunny 72 22.4 62 16.5 69 69 W 9 15 29.68 1005 10 16.0934 0 0
8:55 am 08:55 Sunny 74 23.2 62 16.6 67 67 WSW 10 17 29.68 1005 10 16.0934 0 0
9:15 am 09:15 Sunny 75 23.7 62 16.7 65 65 WSW 12 19 29.68 1005 10 16.0934 0 0
9:35 am 09:35 Sunny 76 24.2 62 16.7 63 63 WSW 14 22 29.68 1005 10 16.0934 0 0
9:55 am 09:55 Sunny 76 24.6 62 16.8 62 62 WSW 10 17 29.65 1004 10 16.0934 0 0
10:15 am 10:15 Sunny 77 25 63 17.2 62 62 WSW 9 15 29.65 1004 10 16.0934 0 0
10:35 am 10:35 Sunny 78 25.6 63 17.4 61 61 SW 13 20 29.62 1003 10 16.0934 0 0
10:55 am 10:55 Sunny 79 26.2 63 17.3 58 58 W 10 17 29.62 1003 10 16.0934 0 0
11:15 am 11:15 Sunny 80 26.6 63 17 56 56 WSW 10 17 29.62 1003 10 16.0934 0 0
11:35 am 11:35 Sunny 81 27 63 17 54 54 WSW 8 13 29.62 1003 10 16.0934 0 0
11:55 am 11:55 Sunny 82 27.8 61 15.9 48 48 WNW 8 13 29.62 1003 10 16.0934 0 0
12:15 pm 12:15 Sunny 82 28 59 15 45 45 W 5 7 29.65 1004 10 16.0934 0 0
12:35 pm 12:35 Sunny 82 27.8 59 14.9 45 45 NW 9 15 29.65 1004 10 16.0934 0 0
12:55 pm 12:55 Sunny 82 27.6 58 14.5 45 45 NW 5 7 29.65 1004 10 16.0934 0 0
1:15 pm 13:15 Sunny 82 28 57 14.1 43 43 NW 9 15 29.65 1004 10 16.0934 0 0
1:35 pm 13:35 Sunny 83 28.1 58 14.7 44 44 NNW 6 9 29.65 1004 10 16.0934 0 0
1:55 pm 13:55 Sunny 83 28.4 60 15.3 45 45 N 8 13 29.62 1003 10 16.0934 0 0
2:15 pm 14:15 Sunny 83 28.1 57 14.1 42 42 N 7 11 29.59 1002 10 16.0934 0 0
2:35 pm 14:35 Sunny 84 28.7 57 13.9 40 40 N 7 11 29.59 1002 10 16.0934 0 0
2:55 pm 14:55 Sunny 85 29.2 57 14 39 39 N 3 6 29.59 1002 10 16.0934 0 0
3:15 pm 15:15 Sunny 85 29.5 56 13.5 37 37 WNW 3 6 29.59 1002 10 16.0934 0 0
3:35 pm 15:35 Sunny 85 29.6 54 12.1 34 34 N 5 7 29.59 1002 10 16.0934 0 0
3:55 pm 15:55 Sunny 86 30.1 52 11.2 31 31 Calm 29.59 1002 10 16.0934 0 0
4:15 pm 16:15 Sunny 86 30 55 12.8 35 35 N 3 6 29.59 1002 10 16.0934 0 0
4:35 pm 16:35 Sunny 86 30.1 53 11.8 32 32 NNW 3 6 29.59 1002 10 16.0934 0 0
4:55 pm 16:55 Sunny 86 30.1 53 11.4 32 32 NW 5 7 29.59 1002 10 16.0934 0 0
5:15 pm 17:15 Sunny 87 30.4 50 9.9 28 28 NNW 3 6 29.59 1002 10 16.0934 0 0
5:35 pm 17:35 Sunny 87 30.7 51 10.8 29 29 WNW 3 6 29.59 1002 10 16.0934 0 0
5:55 pm 17:55 Sunny 85 29.7 52 11.2 32 32 Calm 29.59 1002 10 16.0934 0 0
6:15 pm 18:15 Sunny 84 29.1 53 11.6 34 34 Calm 29.59 1002 10 16.0934 0 0
6:35 pm 18:35 Sunny 85 29.5 54 12.3 35 35 E 3 6 29.56 1001 10 16.0934 0 0
6:55 pm 18:55 Sunny 85 29.7 53 11.5 32 32 SE 5 7 29.56 1001 10 16.0934 0 0
7:15 pm 19:15 Sunny 85 29.5 52 11 32 32 SSE 3 6 29.59 1002 10 16.0934 0 0
7:35 pm 19:35 Sunny 85 29.3 53 11.8 34 34 Calm 29.59 1002 10 16.0934 0 0
7:55 pm 19:55 Sunny 83 28.1 55 12.7 39 39 SE 5 7 29.59 1002 10 16.0934 0 0
8:15 pm 20:15 Sunny 81 27 61 15.9 51 51 Calm 29.62 1003 10 16.0934 0 0
8:35 pm 20:35 Sunny 79 26.3 63 17.2 57 57 SE 3 6 29.65 1004 10 16.0934 0 0
8:55 pm 20:55 Sunny 78 25.3 65 18.6 67 67 ESE 5 7 29.65 1004 10 16.0934 0 0
9:15 pm 21:15 Clear 76 24.6 62 16.9 62 62 ESE 7 11 29.65 1004 10 16.0934 0 0
9:35 pm 21:35 Clear 74 23.4 60 15.7 62 62 E 6 9 29.68 1005 10 16.0934 0 0
9:55 pm 21:55 Clear 76 24.2 58 14.5 55 55 ENE 6 9 29.65 1004 10 16.0934 0 0
10:15 pm 22:15 Clear 74 23.1 60 15.4 62 62 NNE 9 15 29.68 1005 10 16.0934 0 0
10:35 pm 22:35 Clear 74 23.3 60 15.8 63 63 Calm 29.68 1005 10 16.0934 0 0
10:55 pm 22:55 Clear 74 23.1 60 15.8 64 64 ENE 3 6 29.65 1004 10 16.0934 0 0
11:15 pm 23:15 Clear 74 23.1 59 15.2 61 61 NE 9 15 29.62 1003 10 16.0934 0 0
11:35 pm 23:35 Clear with Nearby Thunderstorms 73 23 59 15.2 62 62 NE 6 9 29.62 1003 10 16.0934 0 0
11:55 pm 23:55 Clear with Nearby Thunderstorms 72 22.4 61 16 67 67 NE 3 6 29.62 1003 10 16.0934 0 0

Powered by AerisWeather